User: anonymous   Login
Location: Unspecified
(0.0000°N, 0.0000°E)
Time: 03:18:01
(UTC+00:00)
Language:

STARLINK-5543 - Orbit

View from above orbital plane
View from above orbital plane
View from above satellite
View from above satellite

Ground track
Ground track

The orbit is defined by the following mean orbital elements,

1 56341U          26145.51610941 +.00000000 +00000-0 +10645-3 0 00006
2 56341  97.4459 145.4520 0002365  87.2549 272.8949 15.05640739    02
Epoch (UTC): 25 May 2026 12:23:11
Eccentricity: 0.0002365
inclination: 97.4459°
perigee height: 548 km
apogee height: 551 km
right ascension of ascending node: 145.4520°
argument of perigee: 87.2549°
revolutions per day: 15.05640739
mean anomaly at epoch: 272.8949°

The dashed part of the orbit path shows where the satellite is in the earth's shadow,  

DLR